Albion, NE

8:14 PM CDT on July 27, 2017 (GMT -0500)
Albion Municipal

Weather History for KBVN - January, 2014

Change the Weather History Date:

Sunday, January 12, 2014

  Actual Average (KOFK) Record (KOFK)
Temperature  
Mean Temperature 43 °F -  
Max Temperature 50 °F 28 °F 63 °F (1928)
Min Temperature 36 °F 6 °F -39 °F (1912)
Degree Days  
Heating Degree Days 22    
Moisture  
Dew Point 25 °F    
Average Humidity 52    
Maximum Humidity 63    
Minimum Humidity 42    
Precipitation  
Precipitation 0.00 in - - ()
Sea Level Pressure  
Sea Level Pressure 29.55 in    
Wind  
Wind Speed 7 mph (WNW)    
Max Wind Speed 13 mph    
Max Gust Speed 20 mph    
Visibility 10 miles    
Events      
Averages and records for this station are not official NWS values.
T = Trace of Precipitation, MM = Missing Value Source: NWS Daily Summary

Daily Weather History Graph

Daily Weather History Graph

Search for Another Location

Airport or City:

Trip Planner

Search our weather history database for the weather conditions in past years. The results will help you decide how hot, cold, wet, or windy it might be!

Date:

Astronomy

Jan. 12, 2014 Rise Set
Actual Time 7:58 AM CST 5:23 PM CST
Civil Twilight 7:27 AM CST 5:54 PM CST
Nautical Twilight 6:52 AM CST 6:28 PM CST
Astronomical Twilight 6:19 AM CST 7:02 PM CST
Moon 2:52 PM CST (1/12) 4:57 AM CST (1/12)
Length of Visible Light 10h 27m
Length of Day
9h 25m
Waxing Gibbous, 90% of the Moon is Illuminated
Jan 12
Waxing Gibbous
Jan 15
Full
Jan 23
Last Quarter
Jan 30
New
Feb 6
First Quarter

Hourly Weather History & Observations

Time (CST) Temp. Windchill Dew Point Humidity Pressure Visibility Wind Dir Wind Speed Gust Speed Precip Events Conditions
12:15 AM 37.0 °F 30.4 °F 22.6 °F 56% 29.58 in 10.0 mi South 9.2 mph - N/A   Clear
12:35 AM 39.2 °F 32.5 °F 22.8 °F 52% 29.57 in 10.0 mi SSW 10.4 mph 19.6 mph N/A   Clear
12:55 AM 38.7 °F 31.8 °F 22.8 °F 53% 29.55 in 10.0 mi SSW 10.4 mph - N/A   Clear
1:15 AM 39.4 °F 32.7 °F 22.6 °F 51% 29.54 in 10.0 mi SSW 10.4 mph 17.3 mph N/A   Clear
1:35 AM 38.3 °F 32.5 °F 22.5 °F 53% 29.53 in 10.0 mi SSW 8.1 mph - N/A   Clear
1:55 AM 38.7 °F 31.8 °F 22.5 °F 52% 29.53 in 10.0 mi SSW 10.4 mph - N/A   Clear
2:15 AM 38.3 °F 30.9 °F 22.6 °F 53% 29.52 in 10.0 mi SSW 11.5 mph - N/A   Clear
2:35 AM 37.9 °F 33.5 °F 22.5 °F 54% 29.52 in 10.0 mi South 5.8 mph - N/A   Clear
2:55 AM 37.6 °F 31.6 °F 22.5 °F 54% 29.50 in 10.0 mi SSE 8.1 mph - N/A   Clear
3:15 AM 37.4 °F 32.1 °F 22.1 °F 54% 29.51 in 10.0 mi SSE 6.9 mph - N/A   Clear
3:35 AM 38.3 °F 33.9 °F 22.1 °F 52% 29.50 in 10.0 mi SE 5.8 mph - N/A   Clear
3:55 AM 38.7 °F 34.3 °F 22.1 °F 51% 29.50 in 10.0 mi SE 5.8 mph - N/A   Clear
4:15 AM 38.7 °F 34.3 °F 22.5 °F 52% 29.49 in 10.0 mi SSE 5.8 mph - N/A   Clear
4:35 AM 38.5 °F 32.7 °F 22.3 °F 52% 29.48 in 10.0 mi South 8.1 mph - N/A   Clear
4:55 AM 38.5 °F 32.1 °F 22.5 °F 53% 29.48 in 10.0 mi South 9.2 mph - N/A   Clear
5:15 AM 39.0 °F 34.8 °F 22.5 °F 52% 29.48 in 10.0 mi SSE 5.8 mph - N/A   Scattered Clouds
5:35 AM 39.4 °F 34.5 °F 22.1 °F 50% 29.48 in 10.0 mi South 6.9 mph - N/A   Scattered Clouds
5:55 AM 39.6 °F 35.4 °F 22.1 °F 50% 29.48 in 10.0 mi SSW 5.8 mph - N/A   Scattered Clouds
6:15 AM 39.0 °F - 22.1 °F 51% 29.47 in 10.0 mi Calm Calm - N/A   Clear
6:35 AM 39.6 °F - 22.1 °F 50% 29.46 in 10.0 mi Calm Calm - N/A   Clear
6:55 AM 37.6 °F 35.1 °F 22.1 °F 54% 29.45 in 10.0 mi West 3.5 mph - N/A   Clear
7:15 AM 39.4 °F - 21.9 °F 50% 29.45 in 10.0 mi Calm Calm - N/A   Clear
7:35 AM 37.4 °F - 21.9 °F 54% 29.45 in 10.0 mi Calm Calm - N/A   Clear
7:55 AM 39.2 °F - 22.5 °F 51% 29.45 in 10.0 mi Calm Calm - N/A   Clear
8:15 AM 40.8 °F - 22.8 °F 49% 29.46 in 10.0 mi Calm Calm - N/A   Clear
8:35 AM 39.2 °F - 23.0 °F 52% 29.47 in 10.0 mi Calm Calm - N/A   Clear
8:55 AM 38.8 °F - 23.4 °F 54% 29.47 in 10.0 mi Calm Calm - N/A   Clear
9:15 AM 40.3 °F - 23.9 °F 52% 29.48 in 10.0 mi Calm Calm - N/A   Clear
9:35 AM 41.0 °F - 25.2 °F 53% 29.49 in 10.0 mi Calm Calm - N/A   Clear
9:55 AM 42.8 °F 41.1 °F 26.2 °F 52% 29.48 in 10.0 mi NNW 3.5 mph - N/A   Clear
10:15 AM 47.3 °F - 30.2 °F 52% 29.49 in 10.0 mi NW 9.2 mph - N/A   Clear
10:35 AM 48.2 °F - 31.1 °F 52% 29.50 in 10.0 mi NNW 11.5 mph 18.4 mph N/A   Clear
10:55 AM 48.2 °F - 31.1 °F 52% 29.51 in 10.0 mi NW 10.4 mph 16.1 mph N/A   Clear
11:15 AM 48.7 °F - 30.4 °F 49% 29.50 in 10.0 mi NNW 8.1 mph - N/A   Clear
11:35 AM 48.6 °F - 29.7 °F 48% 29.49 in 10.0 mi NNW 9.2 mph - N/A   Clear
11:55 AM 48.6 °F - 29.5 °F 48% 29.48 in 10.0 mi NNW 8.1 mph - N/A   Clear
12:15 PM 49.1 °F - 29.7 °F 47% 29.47 in 10.0 mi NW 11.5 mph - N/A   Clear
12:35 PM 49.3 °F - 29.5 °F 46% 29.47 in 10.0 mi NW 11.5 mph - N/A   Clear
12:55 PM 49.1 °F - 29.1 °F 46% 29.47 in 10.0 mi NW 12.7 mph - N/A   Clear
1:15 PM 49.1 °F - 28.9 °F 46% 29.47 in 10.0 mi NNW 9.2 mph - N/A   Clear
1:35 PM 49.1 °F - 28.4 °F 45% 29.49 in 10.0 mi NW 6.9 mph - N/A   Clear
1:55 PM 49.5 °F - 28.2 °F 44% 29.49 in 10.0 mi NW 6.9 mph - N/A   Scattered Clouds
2:15 PM 49.5 °F - 27.9 °F 43% 29.50 in 10.0 mi NW 8.1 mph - N/A   Scattered Clouds
2:35 PM 50.0 °F - 27.5 °F 42% 29.50 in 10.0 mi NW 12.7 mph - N/A   Mostly Cloudy
2:55 PM 49.1 °F - 27.0 °F 42% 29.51 in 10.0 mi NNW 12.7 mph - N/A   Overcast
3:15 PM 48.6 °F - 27.5 °F 44% 29.52 in 10.0 mi NW 8.1 mph - N/A   Overcast
3:35 PM 49.1 °F - 27.9 °F 44% 29.53 in 10.0 mi NNW 10.4 mph - N/A   Mostly Cloudy
3:55 PM 48.6 °F - 28.0 °F 45% 29.54 in 10.0 mi NW 6.9 mph - N/A   Mostly Cloudy
4:15 PM 47.5 °F - 28.0 °F 47% 29.57 in 10.0 mi WNW 5.8 mph - N/A   Overcast
4:35 PM 47.1 °F - 28.2 °F 48% 29.57 in 10.0 mi Calm Calm - N/A   Overcast
4:55 PM 45.3 °F 43.0 °F 28.2 °F 51% 29.58 in 10.0 mi WNW 4.6 mph - N/A   Overcast
5:15 PM 44.8 °F - 27.9 °F 52% 29.59 in 10.0 mi Calm Calm - N/A   Overcast
5:35 PM 43.0 °F 41.3 °F 27.5 °F 54% 29.61 in 10.0 mi NW 3.5 mph - N/A   Overcast
5:55 PM 42.8 °F 41.1 °F 27.1 °F 54% 29.63 in 10.0 mi WNW 3.5 mph - N/A   Overcast
6:15 PM 42.8 °F 41.1 °F 26.8 °F 53% 29.64 in 10.0 mi NW 3.5 mph - N/A   Overcast
6:35 PM 43.2 °F - 26.6 °F 52% 29.63 in 10.0 mi Calm Calm - N/A   Overcast
6:55 PM 42.3 °F 40.5 °F 26.4 °F 54% 29.63 in 10.0 mi NW 3.5 mph - N/A   Overcast
7:15 PM 41.5 °F 39.6 °F 26.4 °F 55% 29.63 in 10.0 mi NNW 3.5 mph - N/A   Overcast
7:35 PM 40.8 °F - 26.2 °F 56% 29.63 in 10.0 mi Calm Calm - N/A   Mostly Cloudy
7:55 PM 38.1 °F - 25.5 °F 61% 29.65 in 10.0 mi Calm Calm - N/A   Mostly Cloudy
8:15 PM 36.9 °F 33.1 °F 25.3 °F 63% 29.66 in 10.0 mi NNW 4.6 mph - N/A   Mostly Cloudy
8:35 PM 38.7 °F 32.9 °F 26.4 °F 61% 29.67 in 10.0 mi NNW 8.1 mph - N/A   Mostly Cloudy
8:55 PM 40.8 °F 35.0 °F 26.4 °F 57% 29.67 in 10.0 mi NNW 9.2 mph - N/A   Scattered Clouds
9:15 PM 40.1 °F 34.1 °F 26.1 °F 57% 29.67 in 10.0 mi NNW 9.2 mph - N/A   Clear
9:35 PM 39.4 °F 35.2 °F 25.7 °F 58% 29.69 in 10.0 mi NNW 5.8 mph - N/A   Clear
9:55 PM 39.0 °F 35.7 °F 25.3 °F 58% 29.69 in 10.0 mi NNW 4.6 mph - N/A   Clear
10:15 PM 39.2 °F 35.0 °F 24.8 °F 56% 29.70 in 10.0 mi NNW 5.8 mph - N/A   Scattered Clouds
10:35 PM 40.1 °F 34.7 °F 24.6 °F 54% 29.70 in 10.0 mi NNW 8.1 mph - N/A   Mostly Cloudy
10:55 PM 40.3 °F 33.9 °F 24.4 °F 53% 29.70 in 10.0 mi NNW 10.4 mph - N/A   Overcast
11:15 PM 40.5 °F 34.6 °F 24.4 °F 53% 29.71 in 10.0 mi NNW 9.2 mph - N/A   Overcast
11:35 PM 40.3 °F 33.9 °F 24.1 °F 52% 29.71 in 10.0 mi NW 10.4 mph - N/A   Overcast
11:55 PM 41.2 °F 34.5 °F 23.9 °F 50% 29.71 in 10.0 mi NW 11.5 mph - N/A   Overcast